Regional Weather Roundup
Issued by NWS Grand Forks, ND

Home | Current Version | Previous Version | Text Only | Print | Product List | Glossary Off
Versions: 1 2 3 4 5 6 7 8 9 10 11 12 13 14 15 16 17 18 19 20 21 22 23 24 25 26 27 28 29 30 31 32 33 34 35 36 37 38 39 40 41 42 43 44 45 46 47 48 49 50

000
ASUS43 KFGF 301531
RWRFGF
PRAIRIE TO PINES  WEATHER ROUNDUP
NATIONAL WEATHER SERVICE EASTERN NORTH DAKOTA/GRAND FORKS ND
1000 AM CDT TUE AUG 30 2016

 **SATELLITE DATA USED TO AUGMENT SKY COVER AT AUTOMATED STATIONS**
 *****  WEATHER ACROSS EASTERN NORTH DAKOTA  *****

CITY           SKY/WX    TMP DP  RH WIND       PRES   REMARKS
GRAND FORKS    FAIR      65  51  60 W5        30.25S
GRAND FRKS AFB FAIR      66  52  60 VRB3      30.26S
GRAND FRKS NWS   N/A     66 N/A N/A NW3         N/A
DEVILS LAKE    FAIR      67  53  61 CALM      30.28S
FARGO          FAIR      67  55  65 CALM      30.25S
WAHPETON ARPT  FAIR      70  52  52 N8        30.25S
$$

 ***** WEATHER ACROSS CENTRAL AND WESTERN NORTH DAKOTA  *****

CITY           SKY/WX    TMP DP  RH WIND       PRES   REMARKS
BISMARCK       SUNNY     62  52  69 SE6       30.27F
MINOT          FAIR      64  48  56 S5        30.27S
JAMESTOWN      FAIR      66  52  60 SE5       30.27S
MINOT AFB      FAIR      65  49  54 SE3       30.26S
GARRISON         N/A     67  50  54 S9        30.27R
WILLISTON      MOSUNNY   68  46  45 SE5       30.22S
DICKINSON      SUNNY     68  46  45 SE21      30.23F
HETTINGER      CLOUDY    67  49  52 SE12      30.27S
$$

 *****  OTHER AIRPORT OBSERVATIONS IN OUR AREA  *****

CITY           SKY/WX    TMP DP  RH WIND       PRES   REMARKS
WALHALLA       FAIR      64  61  88 N6        30.26S
GRAFTON AIRPOR FAIR      64  54  68 CALM      30.27S
VALLEY CITY AR FAIR      66  54  63 CALM      30.29S
CANDO          FAIR      68  48  49 CALM      30.30R
CAVALIER APRT  FAIR      64  52  63 N3        30.25S
GWINNER        FAIR      70  57  64 N5        30.26S
SHEYENNE NWR     N/A     67  56  68 N3        29.95S
ROLLA          FAIR      64  46  52 CALM      30.30R
 ***** THE ABOVE OBSERVATIONS ARE NON NWS ARE NOT QUALITY
       CONTROLLED AND MAY MIS-REPORT RAIN FOR SNOW...
$$

  *****  WEATHER ACROSS NORTHERN MINNESOTA  *****

CITY           SKY/WX    TMP DP  RH WIND       PRES   REMARKS
FLAG ISLAND    FAIR      61  50  67 CALM      30.21S HAZE
WARROAD        FAIR      63  54  72 W8        30.24S
ROSEAU         FAIR      64  55  72 W7        30.24S
HALLOCK        FAIR      64  54  68 W3        30.25S
THF RVR FALLS  FAIR      64  53  67 SW7       30.26S
BAUDETTE       FAIR      63  53  70 NW9       30.22S
WASKISH        FAIR      64  55  72 NW5       30.24R
CROOKSTON      FAIR      64  55  72 W5        30.26S
STEPHEN NDAWN    N/A     64  54  68 W2          N/A
GREENBUSH NDAW   N/A     66  54  63 SW5         N/A
$$
  *****  WEATHER ACROSS CENTRAL AND WEST MINNESOTA  *****

CITY           SKY/WX    TMP DP  RH WIND       PRES   REMARKS
FOSSTON        FAIR      66  54  63 W5        30.26R
BEMIDJI        FAIR      65  53  63 NW5       30.24S
PARK RAPIDS    NOT AVBL
ELBOW LAKE     FAIR      68  56  66 NE6       30.25R
WADENA         FAIR      66  54  63 N7        30.24R
DETROIT LAKES  FAIR      66  54  63 CALM      30.26S
MOORHEAD       FAIR      68  55  64 N3        30.25S
FERGUS FALLS   FAIR      70  54  56 NE6       30.25S
MORRIS MN      FAIR      68  57  68 NE7       30.23R
STAPLES        FAIR      66  52  59 N7        30.24R
$$
  *****  WEATHER ELSEWHERE ACROSS MINNESOTA  *****

CITY           SKY/WX    TMP DP  RH WIND       PRES   REMARKS
DULUTH         FAIR      66  56  70 N7        30.19R
INTRNTL FALLS  FAIR      64  53  67 NW10      30.21S
ELY            FAIR      63  52  67 NW8       30.19R
CLOQUET        FAIR      64  55  72 N6        30.20R
WHEATON        FAIR      72  61  68 NE6       30.26R
BRAINERD       FAIR      66  51  58 N10       30.22S
HIBBING        FAIR      62  53  72 N10       30.20F
ALEXANDRIA     FAIR      68  51  54 NE8       30.25S
SAINT CLOUD    FAIR      67  61  81 N3        30.21R
MINNEAPOLIS    PTSUNNY   72  65  78 N13       30.18R
$$

  *****  WEATHER ACROSS SOUTH DAKOTA  *****

CITY           SKY/WX    TMP DP  RH WIND       PRES   REMARKS
SIOUX FALLS    PTSUNNY   73  68  84 S9        30.21S
BROOKINGS      CLOUDY    69  66  90 NE8       30.23R
WATERTOWN      FAIR      72  63  73 NE12      30.23F
HURON          MOSUNNY   76  66  71 VRB7      30.21R
SISSETON         N/A     67  59  75 VRB3      30.24S
ABERDEEN       SUNNY     68  57  68 NE8       30.24S
MITCHELL       NOT AVBL
PIERRE         MOSUNNY   74  66  76 SE14      30.19S
MOBRIDGE       SUNNY     70  52  52 E13       30.21F
RAPID CITY     CLOUDY    63  62  97 S7        30.25F
$$

  *****  SOME WEATHER IN NEARBY STATES *****

CITY           SKY/WX    TMP DP  RH WIND       PRES   REMARKS
GLASGOW MT     CLOUDY    68  49  50 E18       30.09F
GREAT FALLS MT PTSUNNY   65  46  50 SW12      30.13S
CHEYENNE WY    MOSUNNY   54  46  74 NW5       30.39S
SCOTTSBLUFF NE MOSUNNY   66  57  72 W6        30.29S
OMAHA NE       CLOUDY    73  68  84 N5        30.21R
DES MOINES IA  CLOUDY    76  70  82 NE5       30.18R
DAVENPORT IA   FAIR      74  70  87 CALM      30.15F
CHICAGO IL     CLOUDY    75  71  87 SW5       30.13S
EAU CLAIRE WI  FAIR      73  65  75 S3        30.16S
LA CROSSE WI   FAIR      78  66  66 N7        30.15R
$$

  *****  SOME NATIONAL WEATHER *****

CITY           SKY/WX    TMP DP  RH WIND       PRES   REMARKS
LA GUARDIA NY  FAIR      79  62  56 NE12      30.16F
RALEIGH NC     PTSUNNY   84  64  50 E9        30.14R
ATLANTA GA     FAIR      82  68  62 E14       30.12R
NEW ORLEANS LA FAIR      88  77  69 NE9       29.96S HX 100
OKLAHOMA CITY  FAIR      82  69  64 SE3       30.14R
ALBUQUERQUE NM MOSUNNY   64  51  62 N8        30.34S
SALT LAKE CITY MOSUNNY   78  38  23 S9        30.15R
LOS ANGELES CA PTSUNNY   70  64  81 E3        29.89R HAZE
BOISE ID       PTSUNNY   68  41  37 CALM      30.00R
SEATTLE WA     CLOUDY    60  52  74 S8        30.06R
$$

*** WEATHER ACROSS MANITOBA...SASKATCHEWAN AND ONTARIO ***
                ***ONTARIO***

CITY           SKY/WX    TMP DP  RH WIND       PRES   REMARKS
GERALDTON      MOSUNNY   64  50  59 NW9       30.06S
THUNDER BAY    MOSUNNY   68  54  60 N7        30.12S
SIOUX LOOKOUT  MOSUNNY   63  52  67 NW13      30.15F
TORONTO        MOSUNNY   79  59  50 W8        30.13F
BIG TROUT LK   CLOUDY    57  55  94 NW13G20   29.96
PICKLE LAKE    PTSUNNY   61  48  63 W13G25    30.06S
DRYDEN         SUNNY     63  50  63 W7        30.18F
KENORA         SUNNY     63  50  63 W7        30.21S
$$
                *** MANITOBA***

CITY           SKY/WX    TMP DP  RH WIND       PRES   REMARKS
BRANDON        MOSUNNY   63  46  55 CALM      30.28S
DAUPHIN        SUNNY     59  46  63 W6        30.28S
ISLAND LAKE    CLOUDY    57  52  82 W12G17    30.10R
PILOT MOUND      N/A     63  50  63 W3          N/A
THE PAS        PTSUNNY   55  48  76 NW12      30.24S
THOMPSON       DRIZZLE   54  48  82 N10       30.18R
WINNIPEG       MOSUNNY   64  52  63 NW6       30.25R
LYNN LAKE      CLOUDY    52  46  82 MISG      30.25R
CHURCHILL      CLOUDY    48  46  93 MISG      30.12R FOG
GILLAM         CLOUDY    50  48  93 N16G22    30.11R
$$
                ***SASKATCHEWAN***

CITY           SKY/WX    TMP DP  RH WIND       PRES   REMARKS
ESTEVAN        MOSUNNY   64  48  55 E12G20    30.25F
KINDERSLEY     MOSUNNY   61  46  59 E21G29    30.16R
LLOYDMINSTER   PTSUNNY   52  45  76 E14       30.24S
PRINCE ALBERT  PTSUNNY   52  46  82 E3        30.30S
REGINA         MOSUNNY   63  46  55 E17       30.23F
YORKTON        SUNNY     57  48  72 NE3       30.29R
N. BATTLEFORD  HAZE      55  45  67 E12G18    30.27F VSB 1/8
LA RONGE       PTSUNNY   52  46  82 NW6       30.31S
SASKATOON      PTSUNNY   57  48  72 E9        30.27S
SWIFT CURRENT  SUNNY     59  46  63 SE13G20   30.13S
$$
NOTE: THESE ARE AUTOMATED STATIONS WITH LIMITED QUALITY CONTROL
      "FAIR" INDICATES FEW OR NO CLOUDS BELOW 12,000 FEET WITH NO
      SIGNIFICANT WEATHER AND/OR OBSTRUCTIONS TO VISIBILITY.
      SKY/WX - SKY CONDITION AND SIGNIFICANT WEATHER.
      TMP - AIR TEMPERATURE.    DP   - DEWPOINT TEMPERATURE.
      RH  - RELATIVE HUMIDITY.  PRES - PRESSURE.
      HX  - HEAT INDEX.         WCI  - WIND CHILL INDEX.
$




USA.gov is the U.S. government's official web portal to all federal, state and local government web resources and services.